sat.trackr.live / text

‹ back to catalog

STARLINK-30292

NORAD 57844 · 2023-141E

PAYLOAD ACTIVE UNKNOWN

§ Identity

Operator
Country
US
Launch date
2023-09-12
Launch site
AFWTR
Launch vehicle
Mass (kg)
RCS (m²)

Purposes: comms

External: N2YO · Heavens-Above · Gunter

§ Orbital elements

Epoch: 2026-09-20T21:56:47.795712Z

Period
93.85 min
Inclination
53.1594°
Eccentricity
0.0001268
Mean motion
15.34384665 rev/d
Perigee alt
461.9 km
Apogee alt
463.6 km
Semi-major
6,840.9 km
B*
2.6893e-5
RAAN
95.4972°
Arg perigee
90.3130°
Mean anomaly
269.8018°
Rev number
17,024

§ Raw data

STARLINK-302921 57844U 23141E   26263.91444208  .00000532  00000+0  26893-4 0  99912 57844  53.1594  95.4972 0001268  90.3130 269.8018 15.34384665170249

JSON: /api/v1/satellites/57844 · /tle

For live sub-satellite position, see the globe view (requires WebGL).

§ Visibility from observer

Set your observer location to see the next 7 days of passes ≥ 10°. The values pass through the URL so the page stays shareable.

No JS? Fill the form by hand. The geolocation button needs JavaScript.